Flag for Germany Weather past 2 weeks in Langen, Hesse, Germany

Now
86 °F

Sunny.


Feels Like: 83 °F
Forecast: 60 / 88 °F
Wind: 3 mph from North

Location: Frankfurt-M-Flughafen Airport

Current Time: Aug 2, 2015 at 7:12:10 PM

Latest Report: Aug 2, 2015 at 6:20 PM


Visibility: 10 mi

Pressure: 30.04 "Hg

Humidity: 20%

Dew point: 41 °F

Location of LangenLocation

Historic Weather in Langen — Graph

°F

Langen temperature yesterday

Maximum temperature yesterday: 82 °F (at 3:20 PM)
Minimum temperature yesterday: 59 °F (at 5:20 AM)
Average temperature yesterday: 69 °F

Past Weeks' High & Low Weather Summary

 TemperatureHumidityPressure
High91 °F (Jul 22, 2:50 PM)94% (Jul 20, 3:20 AM)30.12 "Hg (Jul 20, 3:20 AM)
Low45 °F (Jul 30, 4:50 AM)19% (Aug 2, 4:20 PM)29.62 "Hg (Jul 24, 11:20 PM)
Average69 °F58%29.90 "Hg
* Reported Jul 18 5:20 PM — Aug 2 5:50 PM, Langen, Weather by CustomWeather, © 2015

Note: Actual official high and low records may vary slightly from our data, if they occured in-between our weather recording intervals... More about our weather records

Advertising

Langen weather history for previous 24 hours

 ConditionsComfort  
Time TempWeatherWind HumidityBarometerVisibility
5:50 PM
Sun, Aug 2
86 °FSunny.3 mph20%30.04 "Hg10 mi
5:20 PM86 °FSunny.7 mph20%30.04 "Hg10 mi
4:50 PM86 °FPassing clouds.3 mph19%30.04 "HgN/A
4:20 PM88 °FSunny.2 mph19%30.07 "Hg10 mi
3:50 PM84 °FPassing clouds.6 mph22%30.07 "HgN/A
3:20 PM84 °FSunny.5 mph22%30.07 "Hg10 mi
2:50 PM84 °FPassing clouds.8 mph23%30.07 "HgN/A
2:20 PM82 °FPassing clouds.7 mph25%30.09 "HgN/A
1:50 PM82 °FPassing clouds.6 mph25%30.09 "HgN/A
1:20 PM81 °FPassing clouds.8 mph28%30.09 "HgN/A
12:50 PM81 °FSunny.7 mph30%30.09 "Hg10 mi
12:20 PM79 °FSunny.5 mph30%30.09 "Hg10 mi
11:50 AM77 °FPassing clouds.6 mph32%30.12 "HgN/A
11:20 AM77 °FPassing clouds.7 mph36%30.09 "HgN/A
10:50 AM75 °FPassing clouds.6 mph39%30.12 "HgN/A
10:20 AM73 °FPassing clouds.6 mph41%30.12 "HgN/A
9:50 AM72 °FPassing clouds.7 mph44%30.09 "HgN/A
9:20 AM70 °FPassing clouds.7 mph46%30.09 "HgN/A
8:50 AM70 °FPassing clouds.8 mph50%30.09 "HgN/A
8:20 AM66 °FSunny.8 mph56%30.09 "Hg10 mi
7:50 AM63 °FPassing clouds.3 mph68%30.09 "HgN/A
7:20 AM59 °FSunny.3 mph82%30.09 "Hg10 mi
6:50 AM55 °FClear.2 mph88%30.09 "Hg10 mi
6:20 AM54 °FClear.1 mph88%30.07 "Hg10 mi
5:50 AM54 °FClear.3 mph88%30.07 "Hg10 mi
5:20 AM55 °FClear.2 mph82%30.07 "Hg10 mi
4:50 AM55 °FClear.2 mph82%30.04 "Hg10 mi
4:20 AM55 °FClear.2 mph88%30.04 "Hg10 mi
3:50 AM57 °FClear.2 mph82%30.04 "Hg10 mi
3:20 AM57 °FClear.3 mph82%30.04 "Hg10 mi
2:50 AM59 °FClear.2 mph77%30.04 "Hg10 mi
2:20 AM61 °FClear.5 mph72%30.04 "Hg10 mi
1:50 AM59 °FClear.5 mph77%30.04 "Hg10 mi
1:20 AM59 °FClear.1 mph77%30.04 "Hg10 mi
12:50 AM61 °FClear.2 mph72%30.01 "Hg10 mi
11:20 PM
Sat, Aug 1
64 °FPassing clouds.3 mph64%30.01 "HgN/A
10:20 PM66 °FClear.5 mph56%29.98 "Hg10 mi
9:50 PM68 °FPassing clouds.3 mph53%29.98 "HgN/A
9:20 PM70 °FSunny.6 mph50%29.98 "Hg10 mi
8:50 PM72 °FSunny.5 mph47%29.95 "Hg10 mi
8:20 PM77 °FPassing clouds.5 mph34%29.95 "HgN/A
7:50 PM79 °FSunny.7 mph32%29.95 "Hg10 mi
7:20 PM79 °FSunny.9 mph30%29.92 "Hg10 mi
Weather by CustomWeather, © 2015

See weather overviewHow to use our weather pages